ATLAS 5 CENTAUR DEB, 45473

Orbit data source: Space-Track

ATLAS 5 CENTAUR DEB, 45473 is space debris in HEO originally from a launch on Wed, 17 Oct 2018 UTC launched from the Air Force Eastern Test Range (AFETR). Debris objects in space refer to the collection of defunct objects orbiting the Earth. Examples of debris include non-operational satellites, rocket bodies, and fragments generated from explosions, collisions, or faulty payload assembly.

Loading next visibility...
Identifier
45473, 2018-079BV
Orbit
HEO
Country
Flag of USUS
Related business
Flag of USUnited Launch Alliance/Lockheed Martin (US)
Manufacturer
ULA Decatur
Mission
Spacecraft
Bus & Motor
Unknown
Mass
Unknown
Launch date (UTC)
2018-10-17 (7 years ago)
Launch vehicle
Unknown
Launch site
Air Force Eastern Test Range (AFETR)
Object type
Payload
Rocket body
Debris
Shape & HBR
Unknown shape, 1.1 m
Radar Cross Section
RCS unknown

Expand to show TLE details & history
Last TLE update: 2 days ago

TLE from 2 days ago
0 ATLAS 5 CENTAUR DEB
1 45473U 18079BV  25339.88075842 -.00000105  00000-0  00000-0 0  9999
2 45473  12.6124  82.3960 4602672 214.6767 104.0986  1.70627491 38410
Epoch: 2025-12-05T21:08Z
TLE epoch observation values (Epoch: 2025-12-05T21:08:17.527Z)
Latitude
0.00001°
Longitude
50.31482°
Altitude
31,158.652 km
Speed
2.786 km/s
True Right ascension
05h 29m 13s
True Declination
0° 00' 00"
Sunlit
Object was in daylight at epoch
Visualization orbit readout
Latitude
Unknown
Longitude
Unknown
Altitude
Unknown
Speed
Unknown
Apparent Right ascension
Unknown
Apparent Declination
Unknown
Sunlit
N/A
Visualization observer readout
Local Sidereal Time
12:31:18
Azimuth
Unknown
Elevation
Unknown
Doppler factor
Unknown
Orbital elements
Apogee altitude
36,823.225 km
Perigee altitude
9,589.62 km
Semi-major axis
29,584.559 km
Eccentricity
0.46027
Inclination
12.6124°
RAAN
82.396°
Arg. of periapsis
214.6767°
True anomaly
145.26492°
Mean anomaly
104.0986°
Eccentric anomaly
125.5536°
Mean motion
0.42653 °/min
Orbital period
844.03 mins
BSTAR
0
Loading maneuver chart data...
Computing Atmospheric mass density...

Documentation

Showing up to 5 results
|